Weather History for KSRQ - January, 2013

Change the Weather History Date:

Monday, January 28, 2013

  Actual Average Record
Temperature  
Mean Temperature 72 °F 62 °F  
Max Temperature 83 °F 71 °F 84 °F (1974)
Min Temperature 60 °F 52 °F 26 °F (1986)
Degree Days  
Heating Degree Days 0 5  
Month to date heating degree days 42 149  
Since 1 July heating degree days 160 304  
Cooling Degree Days 7 2  
Month to date cooling degree days 103 56  
Year to date cooling degree days 103 56  
Growing Degree Days 21 (Base 50)    
Moisture  
Dew Point 59 °F    
Average Humidity 75    
Maximum Humidity 90    
Minimum Humidity 47    
Precipitation  
Precipitation 0.00 in 0.06 in 1.64 in (1925)
Month to date precipitation 0.12 2.33  
Year to date precipitation 0.12 2.33  
Sea Level Pressure  
Sea Level Pressure 30.25 in    
Wind  
Wind Speed 6 mph (East)    
Max Wind Speed 16 mph    
Max Gust Speed 21 mph    
Visibility 10 miles    
Events      
T = Trace of Precipitation, MM = Missing Value Source: NWS Daily Summary

Daily Weather History Graph

Daily Weather History Graph

Search for Another Location

Airport or City:

Trip Planner

Search our weather history database for the weather conditions in past years. The results will help you decide how hot, cold, wet, or windy it might be!

Date:

Astronomy

Jan. 28, 2013 Rise Set
Actual Time 7:18 AM EST 6:08 PM EST
Civil Twilight 6:53 AM EST 6:33 PM EST
Nautical Twilight 6:25 AM EST 7:01 PM EST
Astronomical Twilight 5:57 AM EST 7:29 PM EST
Moon 7:47 PM EST (1/28) 7:55 AM EST (1/28)
Length of Visible Light 11h 39m
Length of Day
10h 50m
Full, 98% of the Moon is Illuminated
Jan 28
Full
Feb 3
Last Quarter
Feb 10
New
Feb 17
First Quarter
Feb 25
Full

Hourly Weather History & Observations

Time (EST) Temp. Heat Index Dew Point Humidity Pressure Visibility Wind Dir Wind Speed Gust Speed Precip Events Conditions
12:53 AM 62.1 °F - 57.0 °F 84% 30.26 in 10.0 mi East 6.9 mph - N/A   Overcast
1:53 AM 62.1 °F - 57.0 °F 84% 30.26 in 10.0 mi ENE 6.9 mph - N/A   Overcast
2:53 AM 61.0 °F - 57.9 °F 90% 30.26 in 10.0 mi East 8.1 mph - N/A   Mostly Cloudy
3:53 AM 62.1 °F - 57.0 °F 84% 30.26 in 10.0 mi East 6.9 mph - N/A   Mostly Cloudy
4:53 AM 60.1 °F - 57.0 °F 90% 30.25 in 10.0 mi East 6.9 mph - N/A   Partly Cloudy
5:53 AM 60.1 °F - 57.9 °F 93% 30.26 in 10.0 mi East 6.9 mph - N/A   Scattered Clouds
6:53 AM 60.1 °F - 57.9 °F 93% 30.28 in 10.0 mi ENE 8.1 mph - N/A   Clear
7:53 AM 60.1 °F - 57.9 °F 93% 30.29 in 9.0 mi East 4.6 mph - N/A   Clear
8:53 AM 64.0 °F - 60.1 °F 87% 30.30 in 10.0 mi East 8.1 mph - N/A   Overcast
9:53 AM 70.0 °F - 62.1 °F 76% 30.31 in 10.0 mi North - - N/A   Overcast
10:53 AM 73.0 °F - 62.1 °F 68% 30.31 in 10.0 mi North - - N/A   Overcast
11:53 AM 78.1 °F - 57.9 °F 50% 30.30 in 10.0 mi ESE 15.0 mph - N/A   Scattered Clouds
12:53 PM 82.0 °F 82.4 °F 60.1 °F 47% 30.26 in 10.0 mi ESE 12.7 mph 18.4 mph N/A   Mostly Cloudy
1:53 PM 79.0 °F - 59.0 °F 50% 30.23 in 10.0 mi ESE 10.4 mph - N/A   Mostly Cloudy
2:53 PM 78.1 °F - 61.0 °F 56% 30.22 in 10.0 mi WSW 8.1 mph - N/A   Mostly Cloudy
3:53 PM 75.9 °F - 61.0 °F 60% 30.20 in 10.0 mi WSW 5.8 mph - N/A   Scattered Clouds
4:53 PM 77.0 °F - 60.1 °F 56% 30.20 in 10.0 mi West 5.8 mph - N/A   Clear
5:53 PM 73.0 °F - 61.0 °F 66% 30.21 in 10.0 mi WSW 4.6 mph - N/A   Clear
6:53 PM 70.0 °F - 61.0 °F 73% 30.22 in 10.0 mi NW 3.5 mph - N/A   Clear
7:53 PM 66.9 °F - 60.1 °F 79% 30.23 in 10.0 mi Calm Calm - N/A   Clear
8:53 PM 68.0 °F - 61.0 °F 78% 30.24 in 10.0 mi Calm Calm - N/A   Overcast
9:53 PM 66.0 °F - 60.1 °F 81% 30.24 in 10.0 mi East 5.8 mph - N/A   Scattered Clouds
10:53 PM 64.9 °F - 59.0 °F 81% 30.25 in 10.0 mi Calm Calm - N/A   Clear
11:53 PM 63.0 °F - 57.9 °F 84% 30.24 in 10.0 mi East 3.5 mph - N/A   Clear